Total_Precipitation_Accumulation
1.29 1.34 1.32 1.38 1.33 1.45 1.67 1.87 1.84 1.88 1.91 1.77 1.52 1.37 1.35 1.29 1.17 1.30 1.34 1.59 1.50 1.45 1.81 1.91 1.73 1.55 1.40 1.18 0.96 0.80 0.71 0.68 0.61 0.47 0.40 0.44 0.52 0.59 0.53 0.46 0.41 0.39 0.33
1.62 1.54 1.38 1.43 1.41 1.51 1.61 1.80 1.90 2.15 2.09 2.00 1.58 1.42 1.44 1.49 1.42 1.51 1.56 1.81 1.70 1.48 1.62 1.75 1.81 1.75 1.60 1.44 1.20 0.99 0.81 0.74 0.65 0.47 0.39 0.38 0.44 0.55 0.53 0.52 0.48 0.44 0.38
1.80 1.73 1.55 1.46 1.54 1.62 1.68 1.74 1.86 2.12 2.05 1.92 1.63 1.53 1.48 1.39 1.24 1.28 1.40 1.54 1.51 1.42 1.47 1.55 1.67 1.69 1.66 1.65 1.53 1.36 1.08 0.86 0.72 0.56 0.44 0.34 0.31 0.36 0.38 0.43 0.46 0.47 0.40
1.81 1.78 1.57 1.42 1.64 1.67 1.70 1.82 1.89 2.01 2.08 2.09 1.82 1.59 1.49 1.38 1.18 1.20 1.20 1.22 1.29 1.09 1.26 1.48 1.60 1.65 1.80 1.89 1.90 1.86 1.55 1.15 0.85 0.68 0.54 0.41 0.32 0.30 0.27 0.27 0.34 0.34 0.30
1.73 1.77 1.51 1.38 1.64 1.79 1.78 1.67 1.89 2.10 2.07 2.09 1.83 1.59 1.37 1.20 1.03 1.00 1.05 1.00 1.04 1.02 1.04 1.14 1.27 1.38 1.73 2.11 2.28 2.26 2.07 1.59 1.12 0.88 0.75 0.62 0.49 0.41 0.30 0.24 0.25 0.23 0.20
1.54 1.74 1.47 1.45 1.70 1.76 1.72 1.81 1.95 2.12 2.00 2.05 1.86 1.42 1.17 0.92 0.88 0.79 0.73 0.75 0.71 0.68 0.72 0.90 1.19 1.13 1.45 1.76 1.96 2.16 2.30 2.10 1.61 1.19 1.01 0.88 0.77 0.61 0.43 0.31 0.26 0.24 0.20
1.58 1.85 1.61 1.62 1.67 1.61 1.61 1.80 1.94 1.87 1.75 2.16 2.09 1.37 0.88 0.70 0.62 0.47 0.49 0.50 0.46 0.49 0.62 0.87 1.06 1.12 1.09 1.19 1.34 1.54 1.90 2.14 2.01 1.61 1.35 1.17 1.03 0.78 0.56 0.45 0.34 0.27 0.22
1.56 1.68 1.69 1.62 1.62 1.60 1.45 1.54 1.80 1.68 1.40 1.85 2.01 1.79 1.15 0.72 0.50 0.35 0.37 0.38 0.42 0.55 0.61 0.68 0.87 1.05 1.05 1.17 1.12 1.05 1.40 1.82 2.07 2.01 1.73 1.41 1.13 0.86 0.67 0.57 0.43 0.35 0.29
1.59 1.68 1.59 1.45 1.41 1.42 1.30 1.31 1.52 1.59 1.38 1.44 1.80 2.05 1.56 0.94 0.68 0.45 0.47 0.50 0.61 0.73 0.73 0.78 0.86 0.97 1.04 1.20 1.30 1.31 1.17 1.32 1.77 2.26 2.19 1.73 1.23 0.91 0.75 0.70 0.64 0.49 0.40
1.73 1.64 1.48 1.32 1.17 1.14 1.11 1.08 1.25 1.37 1.38 1.18 1.33 1.47 1.43 1.32 1.18 0.76 0.56 0.60 0.75 0.82 0.85 0.90 0.92 0.97 1.06 1.25 1.38 1.42 1.15 1.03 1.23 1.90 2.24 2.10 1.64 1.16 0.91 0.91 1.11 0.97 0.63
1.68 1.53 1.41 1.29 1.18 1.08 1.02 1.00 1.05 1.09 1.12 1.04 1.09 1.16 1.24 1.25 1.18 1.08 0.80 0.77 0.78 0.65 0.67 0.73 0.87 1.12 1.20 1.30 1.48 1.45 1.35 1.30 1.26 1.36 1.58 1.75 1.76 1.49 1.24 1.24 1.60 1.75 1.42
1.26 1.20 1.12 1.03 0.99 0.99 1.00 0.97 0.95 0.96 0.98 1.00 1.02 1.04 1.15 1.24 1.27 1.29 1.11 0.97 0.87 0.73 0.71 0.72 0.80 0.98 1.08 1.15 1.21 1.31 1.31 1.27 1.16 1.13 1.16 1.23 1.34 1.47 1.54 1.67 2.00 2.30 2.35
0.71 0.68 0.70 0.72 0.74 0.75 0.76 0.78 0.77 0.78 0.87 0.94 0.97 1.03 1.13 1.22 1.31 1.34 1.25 1.05 0.95 0.85 0.90 0.86 0.79 0.89 0.93 1.10 1.17 1.08 0.95 0.94 0.83 0.81 0.85 0.93 1.06 1.21 1.31 1.44 1.73 2.09 2.37
0.50 0.49 0.52 0.55 0.57 0.60 0.62 0.66 0.66 0.66 0.68 0.74 0.79 0.95 1.07 1.08 1.18 1.28 1.29 1.24 1.15 1.09 1.16 1.09 0.94 0.90 0.94 1.03 1.03 0.93 0.87 0.75 0.61 0.53 0.53 0.57 0.65 0.82 0.99 1.15 1.33 1.50 1.69
0.44 0.45 0.49 0.54 0.57 0.61 0.63 0.61 0.62 0.63 0.72 0.77 0.79 0.90 0.99 1.03 1.10 1.19 1.28 1.33 1.37 1.33 1.31 1.24 1.04 0.98 0.94 0.92 0.97 0.90 0.94 0.76 0.51 0.42 0.41 0.42 0.44 0.48 0.59 0.77 0.94 1.09 1.29
0.43 0.47 0.49 0.55 0.59 0.59 0.57 0.56 0.56 0.59 0.69 0.79 0.88 0.99 1.03 1.04 1.06 1.15 1.27 1.44 1.54 1.52 1.37 1.14 1.03 1.07 1.09 0.99 0.93 0.80 0.75 0.72 0.55 0.43 0.39 0.39 0.39 0.41 0.46 0.60 0.75 0.87 1.02
0.42 0.46 0.49 0.52 0.53 0.54 0.55 0.58 0.58 0.64 0.70 0.75 0.79 0.91 0.99 1.02 1.06 1.11 1.20 1.29 1.44 1.57 1.44 1.22 1.17 1.22 1.28 1.25 1.08 0.90 0.75 0.69 0.59 0.47 0.38 0.37 0.37 0.42 0.48 0.55 0.66 0.77 0.84
0.49 0.50 0.53 0.54 0.52 0.55 0.63 0.70 0.69 0.74 0.79 0.81 0.82 0.84 0.83 0.89 1.00 1.02 1.08 1.12 1.23 1.43 1.39 1.30 1.33 1.37 1.39 1.33 1.25 1.07 0.88 0.77 0.71 0.55 0.42 0.37 0.36 0.38 0.42 0.42 0.50 0.65 0.77
0.54 0.56 0.61 0.69 0.71 0.71 0.72 0.77 0.83 0.84 0.78 0.73 0.73 0.73 0.71 0.73 0.78 0.87 0.97 0.96 0.98 1.10 1.25 1.32 1.43 1.50 1.57 1.46 1.28 1.14 1.02 0.93 0.74 0.64 0.53 0.43 0.40 0.38 0.39 0.39 0.43 0.51 0.64
0.45 0.51 0.60 0.70 0.80 0.85 0.88 0.84 0.79 0.78 0.72 0.67 0.62 0.59 0.61 0.64 0.66 0.71 0.80 0.85 0.88 0.97 1.11 1.20 1.38 1.58 1.60 1.65 1.52 1.30 1.20 1.14 0.91 0.67 0.62 0.55 0.49 0.44 0.40 0.36 0.37 0.44 0.53
0.43 0.54 0.66 0.76 0.89 0.96 0.90 0.86 0.78 0.73 0.71 0.64 0.57 0.52 0.50 0.49 0.52 0.58 0.60 0.67 0.75 0.85 0.89 0.99 1.14 1.39 1.53 1.63 1.59 1.40 1.26 1.28 1.16 0.86 0.72 0.67 0.63 0.56 0.51 0.44 0.36 0.36 0.44
0.39 0.48 0.55 0.63 0.66 0.61 0.61 0.58 0.54 0.52 0.54 0.51 0.48 0.48 0.44 0.39 0.42 0.43 0.41 0.46 0.54 0.61 0.72 0.86 0.94 1.14 1.34 1.43 1.54 1.63 1.51 1.35 1.30 1.17 1.05 0.98 0.86 0.79 0.67 0.52 0.43 0.34 0.34
0.35 0.39 0.42 0.46 0.47 0.47 0.38 0.32 0.31 0.32 0.38 0.40 0.42 0.44 0.35 0.30 0.37 0.40 0.37 0.32 0.35 0.38 0.46 0.65 0.78 0.88 1.11 1.32 1.48 1.65 1.65 1.58 1.49 1.43 1.33 1.31 1.11 0.94 0.80 0.68 0.59 0.45 0.37
0.38 0.39 0.39 0.39 0.44 0.42 0.32 0.24 0.22 0.22 0.28 0.31 0.36 0.42 0.43 0.38 0.38 0.40 0.41 0.36 0.32 0.31 0.34 0.40 0.50 0.68 0.94 1.30 1.50 1.57 1.69 1.74 1.71 1.65 1.56 1.54 1.40 1.20 1.05 0.92 0.81 0.61 0.49
0.45 0.44 0.41 0.42 0.46 0.47 0.37 0.24 0.21 0.24 0.30 0.32 0.35 0.40 0.44 0.43 0.42 0.33 0.36 0.37 0.36 0.36 0.31 0.34 0.41 0.53 0.71 0.99 1.38 1.51 1.55 1.49 1.47 1.33 1.19 1.22 1.28 1.28 1.26 1.16 1.01 0.87 0.71
0.54 0.50 0.47 0.50 0.55 0.60 0.53 0.30 0.25 0.28 0.35 0.42 0.51 0.51 0.44 0.40 0.38 0.31 0.35 0.41 0.38 0.36 0.38 0.39 0.39 0.41 0.47 0.64 0.93 1.17 1.22 1.19 1.10 1.11 0.92 0.85 0.88 0.95 1.08 1.06 0.96 0.89 0.83